RYR12 LIBD-EPKK

Flight info

Callsign RYR12
Flight time 1h 27m
Altitude 35000
Route LIBD SID BANAV DCT AIOSA DCT EMKES DCT BAREB DCT ETARO DCT BALAP DCT MEBAN STAR EPKK
Aircraft B738/M-V/N

Departure

Time 2026-04-24 19:35
Airport Bari Karol Wojtyła International Airport (LIBD)

Arrival

Time 2026-04-24 21:03
Airport Kraków John Paul II International Airport (EPKK)
Time Latitude Longitude Altitude Speed Heading
2026-04-24 19:10 41.13557 16.76456 143 ft 0 kts 159°
2026-04-24 19:26 41.13566 16.76451 143 ft 2 kts 159°
2026-04-24 19:27 41.13580 16.76444 143 ft 2 kts 159°
2026-04-24 19:27 41.13589 16.76440 143 ft 1 kts 160°
2026-04-24 19:27 41.13602 16.76430 143 ft 2 kts 134°
2026-04-24 19:27 41.13614 16.76408 143 ft 2 kts 107°
2026-04-24 19:28 41.13615 16.76395 143 ft 2 kts 92°
2026-04-24 19:28 41.13614 16.76377 143 ft 0 kts 72°
2026-04-24 19:28 41.13612 16.76369 144 ft 1 kts 68°
2026-04-24 19:28 41.13611 16.76368 144 ft 0 kts 69°
2026-04-24 19:32 41.13612 16.76372 143 ft 1 kts 69°
2026-04-24 19:32 41.13623 16.76409 142 ft 8 kts 69°
2026-04-24 19:32 41.13660 16.76513 140 ft 16 kts 42°
2026-04-24 19:32 41.13782 16.76553 137 ft 16 kts 14°
2026-04-24 19:33 41.13850 16.76710 132 ft 23 kts 69°
2026-04-24 19:33 41.13918 16.76947 128 ft 30 kts 69°
2026-04-24 19:33 41.14001 16.77245 118 ft 37 kts 70°
2026-04-24 19:33 41.14106 16.77403 110 ft 19 kts 19°
2026-04-24 19:34 41.14202 16.77393 108 ft 11 kts 316°
2026-04-24 19:34 41.14207 16.77315 110 ft 7 kts 249°
2026-04-24 19:34 41.14193 16.77264 112 ft 9 kts 249°
2026-04-24 19:34 41.14115 16.76996 121 ft 68 kts 250°
2026-04-24 19:35 41.13853 16.76078 141 ft 142 kts 249°
2026-04-24 19:35 41.13460 16.74661 456 ft 177 kts 251°
2026-04-24 19:35 41.13032 16.73117 1388 ft 182 kts 253°
2026-04-24 19:35 41.12610 16.71530 2121 ft 190 kts 256°
2026-04-24 19:36 41.12334 16.69752 2559 ft 206 kts 276°
2026-04-24 19:36 41.12733 16.67825 2751 ft 235 kts 303°
2026-04-24 19:36 41.13920 16.66343 3488 ft 240 kts 338°
2026-04-24 19:36 41.15548 16.66065 4328 ft 245 kts 11°
2026-04-24 19:37 41.17119 16.67035 5049 ft 258 kts 36°
2026-04-24 19:37 41.18483 16.68447 6269 ft 248 kts 38°
2026-04-24 19:37 41.19916 16.69770 6899 ft 263 kts 30°
2026-04-24 19:37 41.21552 16.70845 7861 ft 262 kts 24°
2026-04-24 19:38 41.23244 16.71794 8660 ft 268 kts 23°
2026-04-24 19:38 41.24960 16.72744 9526 ft 270 kts 23°
2026-04-24 19:38 41.26681 16.73726 10301 ft 275 kts 24°
2026-04-24 19:38 41.28470 16.74769 10820 ft 289 kts 24°
2026-04-24 19:39 41.30365 16.75886 11325 ft 303 kts 25°
2026-04-24 19:39 41.32350 16.77059 11768 ft 319 kts 25°
2026-04-24 19:39 41.34414 16.78278 12315 ft 331 kts 25°
2026-04-24 19:39 41.36495 16.79506 13189 ft 332 kts 25°
2026-04-24 19:40 41.38638 16.80770 13947 ft 336 kts 25°
2026-04-24 19:40 41.40782 16.82037 14684 ft 340 kts 25°
2026-04-24 19:40 41.42937 16.83310 15458 ft 343 kts 25°
2026-04-24 19:40 41.45114 16.84599 16143 ft 347 kts 25°
2026-04-24 19:41 41.47327 16.85909 16854 ft 350 kts 25°
2026-04-24 19:41 41.49577 16.87243 17517 ft 354 kts 26°
2026-04-24 19:41 41.51822 16.88575 18191 ft 357 kts 25°
2026-04-24 19:41 41.54107 16.89931 18897 ft 359 kts 26°
2026-04-24 19:42 41.56384 16.91283 19574 ft 362 kts 26°
2026-04-24 19:42 41.58684 16.92650 20207 ft 365 kts 26°
2026-04-24 19:42 41.61014 16.94036 20855 ft 368 kts 26°
2026-04-24 19:42 41.63354 16.95431 21420 ft 372 kts 26°
2026-04-24 19:43 41.65704 16.96833 22071 ft 373 kts 26°
2026-04-24 19:43 41.68100 16.98262 22657 ft 376 kts 26°
2026-04-24 19:43 41.70474 16.99760 23169 ft 380 kts 29°
2026-04-24 19:43 41.72768 17.01498 23804 ft 379 kts 34°
2026-04-24 19:44 41.74899 17.03520 24263 ft 383 kts 39°
2026-04-24 19:44 41.76982 17.05813 24847 ft 384 kts 42°
2026-04-24 19:44 41.78969 17.08148 25309 ft 388 kts 43°
2026-04-24 19:44 41.81005 17.10600 25830 ft 390 kts 43°
2026-04-24 19:45 41.83013 17.13027 26260 ft 394 kts 43°
2026-04-24 19:45 41.85055 17.15489 26744 ft 397 kts 43°
2026-04-24 19:45 41.87131 17.17979 27230 ft 400 kts 43°
2026-04-24 19:45 41.89236 17.20466 27657 ft 404 kts 41°
2026-04-24 19:46 41.91435 17.22794 28129 ft 407 kts 37°
2026-04-24 19:46 41.93927 17.24729 28526 ft 413 kts 27°
2026-04-24 19:46 41.96624 17.26080 28953 ft 418 kts 20°
2026-04-24 19:46 41.99418 17.27119 29348 ft 422 kts 17°
2026-04-24 19:47 42.02294 17.28029 29793 ft 424 kts 15°
2026-04-24 19:47 42.05168 17.28876 30362 ft 423 kts 15°
2026-04-24 19:47 42.08018 17.29702 30993 ft 419 kts 15°
2026-04-24 19:47 42.10893 17.30546 31459 ft 419 kts 15°
2026-04-24 19:48 42.13716 17.31389 31968 ft 417 kts 15°
2026-04-24 19:48 42.16525 17.32242 32437 ft 416 kts 15°
2026-04-24 19:48 42.22156 17.33980 33367 ft 413 kts 16°
2026-04-24 19:49 42.27739 17.35727 34185 ft 412 kts 16°
2026-04-24 19:49 42.33315 17.37477 34960 ft 409 kts 16°
2026-04-24 19:50 42.41812 17.40161 35033 ft 426 kts 16°
2026-04-24 19:50 42.44695 17.41074 35036 ft 432 kts 16°
2026-04-24 19:51 42.50621 17.42954 35025 ft 443 kts 16°
2026-04-24 19:51 42.53658 17.43915 35025 ft 447 kts 16°
2026-04-24 19:52 42.62736 17.46784 35022 ft 445 kts 15°
2026-04-24 19:52 42.68776 17.48698 35026 ft 445 kts 15°
2026-04-24 19:53 42.74792 17.50610 35024 ft 447 kts 15°
2026-04-24 19:54 42.83878 17.53511 35021 ft 445 kts 15°
2026-04-24 19:54 42.89890 17.55437 35023 ft 445 kts 15°
2026-04-24 19:55 42.94888 17.57040 35020 ft 443 kts 15°
2026-04-24 19:55 43.01922 17.59301 35030 ft 444 kts 15°
2026-04-24 19:56 43.07930 17.61235 35023 ft 445 kts 15°
2026-04-24 19:56 43.13970 17.63186 35044 ft 445 kts 15°
2026-04-24 19:57 43.19976 17.65130 35128 ft 444 kts 16°
2026-04-24 19:57 43.25988 17.67078 35051 ft 442 kts 16°
2026-04-24 19:58 43.31972 17.69020 34966 ft 443 kts 16°
2026-04-24 19:58 43.37964 17.70969 35037 ft 444 kts 16°
2026-04-24 19:59 43.43986 17.72932 35128 ft 444 kts 16°
2026-04-24 19:59 43.49965 17.74884 35070 ft 442 kts 16°
2026-04-24 20:00 43.55961 17.76848 35084 ft 443 kts 16°
2026-04-24 20:00 43.61948 17.78812 35087 ft 443 kts 16°
2026-04-24 20:01 43.67963 17.80789 35108 ft 442 kts 15°
2026-04-24 20:01 43.73932 17.82755 35102 ft 443 kts 15°
2026-04-24 20:02 43.79953 17.84743 35109 ft 442 kts 15°
2026-04-24 20:02 43.85950 17.86632 35111 ft 442 kts 14°
2026-04-24 20:03 43.91978 17.88313 35122 ft 443 kts 13°
2026-04-24 20:03 43.98019 17.89957 35129 ft 443 kts 13°
2026-04-24 20:04 44.04090 17.91636 35125 ft 443 kts 13°
2026-04-24 20:04 44.10094 17.93329 35123 ft 442 kts 13°
2026-04-24 20:05 44.16145 17.95044 35122 ft 443 kts 13°
2026-04-24 20:05 44.22154 17.96754 35121 ft 441 kts 13°
2026-04-24 20:06 44.28181 17.98471 35117 ft 443 kts 13°
2026-04-24 20:06 44.34254 18.00207 35111 ft 447 kts 13°
2026-04-24 20:07 44.39322 18.01657 35113 ft 447 kts 13°
2026-04-24 20:07 44.46370 18.03674 35111 ft 441 kts 13°
2026-04-24 20:08 44.52387 18.05403 35101 ft 441 kts 13°
2026-04-24 20:08 44.58412 18.07140 35098 ft 440 kts 13°
2026-04-24 20:09 44.64423 18.08876 35092 ft 440 kts 13°
2026-04-24 20:09 44.70411 18.10606 35085 ft 441 kts 13°
2026-04-24 20:10 44.76404 18.12340 35086 ft 440 kts 13°
2026-04-24 20:10 44.82418 18.14086 35081 ft 440 kts 13°
2026-04-24 20:11 44.88427 18.15834 35068 ft 440 kts 13°
2026-04-24 20:11 44.94411 18.17580 35074 ft 440 kts 13°
2026-04-24 20:12 45.00411 18.19334 35064 ft 440 kts 12°
2026-04-24 20:12 45.06422 18.21094 35066 ft 440 kts 12°
2026-04-24 20:13 45.12427 18.22857 35064 ft 439 kts 13°
2026-04-24 20:13 45.18381 18.24608 35062 ft 439 kts 13°
2026-04-24 20:14 45.24380 18.26376 35059 ft 439 kts 12°
2026-04-24 20:14 45.30323 18.28128 35061 ft 438 kts 12°
2026-04-24 20:15 45.36320 18.29902 35058 ft 438 kts 12°
2026-04-24 20:15 45.42268 18.31668 35060 ft 437 kts 12°
2026-04-24 20:16 45.48210 18.33439 35059 ft 438 kts 12°
2026-04-24 20:16 45.54210 18.35225 35055 ft 438 kts 12°
2026-04-24 20:17 45.60147 18.36997 35054 ft 437 kts 12°
2026-04-24 20:17 45.70082 18.39972 35052 ft 437 kts 12°
2026-04-24 20:18 45.75066 18.41467 35049 ft 438 kts 12°
2026-04-24 20:18 45.80978 18.43335 35053 ft 436 kts 13°
2026-04-24 20:19 45.86885 18.45272 35048 ft 436 kts 13°
2026-04-24 20:19 45.92824 18.47225 35049 ft 437 kts 13°
2026-04-24 20:20 45.98740 18.49164 35048 ft 436 kts 12°
2026-04-24 20:20 46.04645 18.51098 35044 ft 436 kts 12°
2026-04-24 20:21 46.10543 18.53029 35045 ft 435 kts 12°
2026-04-24 20:21 46.16435 18.54964 35044 ft 435 kts 12°
2026-04-24 20:22 46.22347 18.56910 35044 ft 436 kts 12°
2026-04-24 20:22 46.28245 18.58856 35041 ft 435 kts 12°
2026-04-24 20:23 46.34129 18.60802 35038 ft 435 kts 12°
2026-04-24 20:23 46.40058 18.62765 35040 ft 435 kts 12°
2026-04-24 20:24 46.45931 18.64714 35041 ft 434 kts 12°
2026-04-24 20:24 46.51830 18.66677 35040 ft 434 kts 12°
2026-04-24 20:25 46.57710 18.68638 35038 ft 434 kts 12°
2026-04-24 20:25 46.63568 18.70596 35040 ft 434 kts 12°
2026-04-24 20:26 46.69429 18.72559 35037 ft 433 kts 12°
2026-04-24 20:26 46.75291 18.74527 35035 ft 433 kts 12°
2026-04-24 20:27 46.81156 18.76499 35033 ft 433 kts 12°
2026-04-24 20:27 46.87039 18.78482 35033 ft 433 kts 12°
2026-04-24 20:28 46.92891 18.80459 35031 ft 432 kts 12°
2026-04-24 20:28 46.98732 18.82439 35027 ft 433 kts 12°
2026-04-24 20:29 47.04611 18.84436 35028 ft 432 kts 12°
2026-04-24 20:29 47.10434 18.86417 35025 ft 432 kts 12°
2026-04-24 20:30 47.16301 18.88420 35024 ft 432 kts 12°
2026-04-24 20:30 47.22157 18.90419 35022 ft 432 kts 11°
2026-04-24 20:31 47.28007 18.92421 35021 ft 431 kts 11°
2026-04-24 20:31 47.33834 18.94420 35018 ft 432 kts 11°
2026-04-24 20:32 47.39673 18.96431 35019 ft 431 kts 11°
2026-04-24 20:32 47.45519 18.98446 35015 ft 431 kts 11°
2026-04-24 20:33 47.51353 19.00482 35015 ft 432 kts 12°
2026-04-24 20:33 47.57162 19.02901 35013 ft 432 kts 14°
2026-04-24 20:34 47.62885 19.05481 35011 ft 432 kts 14°
2026-04-24 20:34 47.68626 19.08067 35012 ft 431 kts 14°
2026-04-24 20:35 47.74410 19.10641 35011 ft 431 kts 14°
2026-04-24 20:35 47.80131 19.13173 35006 ft 432 kts 14°
2026-04-24 20:36 47.85937 19.15737 35005 ft 432 kts 13°
2026-04-24 20:36 47.91715 19.18292 35004 ft 431 kts 13°
2026-04-24 20:37 47.97474 19.20841 35003 ft 432 kts 13°
2026-04-24 20:37 48.03212 19.23387 35007 ft 432 kts 13°
2026-04-24 20:38 48.09018 19.25756 35010 ft 429 kts
2026-04-24 20:38 48.14870 19.27453 35008 ft 428 kts
2026-04-24 20:39 48.20761 19.28996 35010 ft 429 kts
2026-04-24 20:39 48.26633 19.30571 35017 ft 427 kts
2026-04-24 20:40 48.32507 19.32190 35018 ft 429 kts
2026-04-24 20:40 48.38359 19.33827 35020 ft 428 kts
2026-04-24 20:41 48.44229 19.35492 35022 ft 429 kts
2026-04-24 20:41 48.50095 19.37152 35022 ft 427 kts
2026-04-24 20:42 48.55953 19.38806 35020 ft 428 kts
2026-04-24 20:42 48.61815 19.40464 35023 ft 428 kts
2026-04-24 20:43 48.67680 19.42128 35026 ft 428 kts
2026-04-24 20:43 48.73527 19.43796 35026 ft 428 kts
2026-04-24 20:44 48.79391 19.45473 35034 ft 428 kts
2026-04-24 20:44 48.85267 19.47158 35035 ft 427 kts
2026-04-24 20:45 48.91045 19.48828 34540 ft 416 kts
2026-04-24 20:45 48.93883 19.49649 33976 ft 411 kts
2026-04-24 20:45 48.96661 19.50451 33302 ft 411 kts
2026-04-24 20:46 48.99467 19.51260 32542 ft 412 kts
2026-04-24 20:46 49.02280 19.52069 31750 ft 415 kts
2026-04-24 20:46 49.05109 19.52881 30917 ft 418 kts
2026-04-24 20:46 49.07978 19.53706 30042 ft 423 kts
2026-04-24 20:47 49.10857 19.54536 29127 ft 427 kts
2026-04-24 20:47 49.13798 19.55387 28172 ft 432 kts
2026-04-24 20:47 49.16780 19.56253 27160 ft 437 kts
2026-04-24 20:47 49.20779 19.57414 25821 ft 443 kts
2026-04-24 20:48 49.22773 19.57996 25364 ft 441 kts
2026-04-24 20:48 49.25760 19.58871 24750 ft 436 kts
2026-04-24 20:48 49.28736 19.59745 24068 ft 434 kts
2026-04-24 20:48 49.31700 19.60614 23352 ft 433 kts
2026-04-24 20:49 49.34655 19.61480 22609 ft 432 kts
2026-04-24 20:49 49.37587 19.62340 21876 ft 431 kts
2026-04-24 20:49 49.40515 19.63295 21108 ft 432 kts 10°
2026-04-24 20:49 49.43366 19.64676 20346 ft 435 kts 17°
2026-04-24 20:50 49.46053 19.66828 19583 ft 439 kts 28°
2026-04-24 20:50 49.48470 19.69700 18778 ft 439 kts 37°
2026-04-24 20:50 49.50659 19.72900 18024 ft 434 kts 40°
2026-04-24 20:50 49.52727 19.76170 17269 ft 429 kts 42°
2026-04-24 20:51 49.54758 19.79504 16509 ft 423 kts 43°
2026-04-24 20:51 49.56739 19.82799 15751 ft 417 kts 43°
2026-04-24 20:51 49.58698 19.86059 15004 ft 410 kts 43°
2026-04-24 20:51 49.60607 19.89225 14279 ft 404 kts 43°
2026-04-24 20:52 49.62512 19.92374 13556 ft 398 kts 43°
2026-04-24 20:52 49.64395 19.95476 12865 ft 392 kts 43°
2026-04-24 20:52 49.66248 19.98524 12142 ft 388 kts 43°
2026-04-24 20:52 49.68078 20.01513 11446 ft 383 kts 41°
2026-04-24 20:53 49.70055 20.04184 10739 ft 374 kts 31°
2026-04-24 20:53 49.72345 20.05913 10126 ft 361 kts 12°
2026-04-24 20:53 49.74745 20.06548 9896 ft 341 kts
2026-04-24 20:53 49.77048 20.06938 9698 ft 329 kts
2026-04-24 20:54 49.79310 20.07305 9159 ft 330 kts
2026-04-24 20:54 49.81596 20.07701 8770 ft 328 kts
2026-04-24 20:54 49.83846 20.08118 8399 ft 327 kts
2026-04-24 20:54 49.86102 20.08552 8001 ft 326 kts
2026-04-24 20:55 49.88343 20.08986 7713 ft 321 kts
2026-04-24 20:55 49.90528 20.09412 7618 ft 311 kts
2026-04-24 20:55 49.92646 20.09826 7532 ft 303 kts
2026-04-24 20:55 49.94724 20.10228 7445 ft 295 kts
2026-04-24 20:56 49.96722 20.10617 7343 ft 284 kts
2026-04-24 20:56 49.98673 20.10998 7135 ft 279 kts
2026-04-24 20:56 50.00590 20.11368 6789 ft 276 kts
2026-04-24 20:56 50.02499 20.11719 6293 ft 276 kts
2026-04-24 20:57 50.04391 20.11685 5801 ft 271 kts 349°
2026-04-24 20:57 50.06211 20.11167 5314 ft 259 kts 343°
2026-04-24 20:57 50.07932 20.10525 4797 ft 248 kts 342°
2026-04-24 20:57 50.09503 20.09666 4335 ft 235 kts 330°
2026-04-24 20:58 50.10641 20.08318 4322 ft 206 kts 307°
2026-04-24 20:58 50.11124 20.06870 4340 ft 179 kts 283°
2026-04-24 20:58 50.11166 20.05040 4159 ft 169 kts 268°
2026-04-24 20:58 50.11048 20.03256 3835 ft 162 kts 265°
2026-04-24 20:59 50.10881 20.01550 3645 ft 158 kts 263°
2026-04-24 20:59 50.10680 19.99831 3422 ft 164 kts 262°
2026-04-24 20:59 50.10460 19.98099 3185 ft 162 kts 261°
2026-04-24 20:59 50.10231 19.96363 2965 ft 163 kts 261°
2026-04-24 21:00 50.09998 19.94631 2737 ft 163 kts 261°
2026-04-24 21:00 50.09764 19.92918 2509 ft 162 kts 261°
2026-04-24 21:00 50.09532 19.91213 2286 ft 161 kts 261°
2026-04-24 21:00 50.09302 19.89567 2105 ft 144 kts 262°
2026-04-24 21:01 50.09095 19.88077 1823 ft 135 kts 262°
2026-04-24 21:01 50.08908 19.86709 1685 ft 127 kts 262°
2026-04-24 21:01 50.08721 19.85336 1554 ft 134 kts 262°
2026-04-24 21:01 50.08519 19.83912 1325 ft 134 kts 260°
2026-04-24 21:02 50.08316 19.82474 1140 ft 136 kts 261°
2026-04-24 21:02 50.08123 19.81029 973 ft 139 kts 261°
2026-04-24 21:02 50.07922 19.79552 815 ft 138 kts 259°
2026-04-24 21:02 50.07748 19.78292 799 ft 89 kts 258°
2026-04-24 21:03 50.07656 19.77637 800 ft 45 kts 259°
2026-04-24 21:03 50.07586 19.77146 800 ft 45 kts 254°
2026-04-24 21:03 50.07502 19.76853 800 ft 15 kts 186°
2026-04-24 21:03 50.07397 19.76879 800 ft 14 kts 168°
2026-04-24 21:04 50.07314 19.76947 800 ft 13 kts 103°
2026-04-24 21:04 50.07326 19.77086 800 ft 12 kts 78°
2026-04-24 21:04 50.07346 19.77218 800 ft 12 kts 77°
2026-04-24 21:04 50.07364 19.77341 800 ft 12 kts 79°
2026-04-24 21:05 50.07383 19.77495 800 ft 16 kts 79°
2026-04-24 21:05 50.07410 19.77700 800 ft 21 kts 77°
2026-04-24 21:05 50.07447 19.77953 800 ft 26 kts 79°
2026-04-24 21:05 50.07491 19.78256 800 ft 30 kts 77°
2026-04-24 21:06 50.07540 19.78601 799 ft 33 kts 78°
2026-04-24 21:06 50.07603 19.79067 799 ft 32 kts 78°
2026-04-24 21:06 50.07634 19.79279 800 ft 22 kts 77°
2026-04-24 21:06 50.07660 19.79468 800 ft 17 kts 77°
2026-04-24 21:07 50.07680 19.79648 800 ft 16 kts 100°
2026-04-24 21:07 50.07594 19.79721 800 ft 14 kts 167°
2026-04-24 21:07 50.07499 19.79754 800 ft 13 kts 172°
2026-04-24 21:07 50.07415 19.79777 800 ft 7 kts 167°
2026-04-24 21:08 50.07382 19.79783 800 ft 4 kts 191°
2026-04-24 21:08 50.07355 19.79764 800 ft 4 kts 201°
2026-04-24 21:08 50.07328 19.79764 800 ft 3 kts 167°
2026-04-24 21:08 50.07302 19.79773 800 ft 3 kts 166°
2026-04-24 21:09 50.07277 19.79782 800 ft 2 kts 167°
2026-04-24 21:09 50.07276 19.79782 800 ft 0 kts 167°